• In Deutschland
  • Länderverzeichnis
  • Für 7 Tage
  • Wassertemperatur
  • Satellitenkarten
  • Wetterkarte
  • Widgets
  • user-avatar
    Anmelden

    Stündliche Wetter Ali Bajramli

    Heute, 29 März, Mittwoch

    Zeit Temperatur Niederschläge Wind Luftdruck Luftfeuchtigkeit
    00:00 +5°C° 0 mm 3 m/S 760 mmHg 83%
    01:00 +5°C° 0 mm 4 m/S 760 mmHg 80%
    02:00 +5°C° 0 mm 4 m/S 759 mmHg 77%
    03:00 +5°C° 0 mm 5 m/S 759 mmHg 74%
    04:00 +4°C° 0 mm 6 m/S 759 mmHg 66%
    05:00 +4°C° 0 mm 6 m/S 759 mmHg 58%
    06:00 +5°C° 0 mm 7 m/S 759 mmHg 50%
    07:00 +8°C° 0 mm 7 m/S 759 mmHg 43%
    08:00 +10°C° 0 mm 8 m/S 760 mmHg 35%
    09:00 +13°C° 0 mm 9 m/S 760 mmHg 28%
    10:00 +15°C° 0 mm 8 m/S 761 mmHg 27%
    11:00 +17°C° 0 mm 7 m/S 761 mmHg 27%
    12:00 +19°C° 0 mm 5 m/S 761 mmHg 26%
    13:00 +19°C° 0 mm 5 m/S 761 mmHg 28%
    14:00 +19°C° 0 mm 5 m/S 761 mmHg 30%
    15:00 +19°C° 0 mm 5 m/S 761 mmHg 32%
    16:00 +16°C° 0 mm 5 m/S 762 mmHg 41%
    17:00 +13°C° 0 mm 6 m/S 762 mmHg 51%
    18:00 +10°C° 0 mm 6 m/S 763 mmHg 60%
    19:00 +10°C° 0 mm 5 m/S 764 mmHg 64%
    20:00 +9°C° 0 mm 5 m/S 765 mmHg 67%
    21:00 +8°C° 0 mm 4 m/S 766 mmHg 71%
    22:00 +9°C° 0 mm 3 m/S 766 mmHg 74%
    23:00 +8°C° 0 mm 3 m/S 766 mmHg 76%

    Morgen, 30 März, Donnerstag

    Zeit Temperatur Niederschläge Wind Luftdruck Luftfeuchtigkeit
    00:00 +8°C° 0 mm 3 m/S 767 mmHg 79%
    01:00 +8°C° 0 mm 2 m/S 767 mmHg 80%
    02:00 +7°C° 0 mm 2 m/S 767 mmHg 81%
    03:00 +7°C° 0 mm 2 m/S 766 mmHg 82%
    04:00 +7°C° 0 mm 2 m/S 767 mmHg 83%
    05:00 +7°C° 0 mm 2 m/S 767 mmHg 83%
    06:00 +7°C° 0 mm 2 m/S 767 mmHg 83%
    07:00 +9°C° 0 mm 3 m/S 766 mmHg 77%
    08:00 +11°C° 0 mm 3 m/S 766 mmHg 71%
    09:00 +12°C° 0 mm 4 m/S 766 mmHg 64%
    10:00 +13°C° 0 mm 4 m/S 765 mmHg 62%
    11:00 +14°C° 0 mm 4 m/S 765 mmHg 59%
    12:00 +15°C° 0 mm 4 m/S 764 mmHg 57%
    13:00 +15°C° 0 mm 4 m/S 763 mmHg 55%
    14:00 +17°C° 0 mm 4 m/S 762 mmHg 53%
    15:00 +17°C° 0 mm 4 m/S 761 mmHg 51%
    16:00 +15°C° 0 mm 4 m/S 761 mmHg 56%
    17:00 +14°C° 0 mm 3 m/S 761 mmHg 60%
    18:00 +13°C° 0 mm 3 m/S 760 mmHg 65%
    19:00 +12°C° 0 mm 3 m/S 760 mmHg 69%
    20:00 +11°C° 0 mm 3 m/S 760 mmHg 72%
    21:00 +10°C° 0 mm 2 m/S 761 mmHg 76%
    22:00 +10°C° 0 mm 2 m/S 760 mmHg 78%
    23:00 +10°C° 0 mm 2 m/S 760 mmHg 80%

    übermorgen, 31 März, Freitag

    Zeit Temperatur Niederschläge Wind Luftdruck Luftfeuchtigkeit
    00:00 +10°C° 0 mm 2 m/S 760 mmHg 82%
    01:00 +10°C° 0 mm 3 m/S 760 mmHg 80%
    02:00 +10°C° 0 mm 3 m/S 760 mmHg 77%
    03:00 +9°C° 0 mm 3 m/S 760 mmHg 74%
    04:00 +9°C° 0 mm 3 m/S 760 mmHg 72%
    05:00 +9°C° 0 mm 2 m/S 761 mmHg 70%
    06:00 +9°C° 0 mm 2 m/S 761 mmHg 68%
    07:00 +12°C° 0 mm 2 m/S 761 mmHg 58%
    08:00 +14°C° 0 mm 2 m/S 762 mmHg 48%
    09:00 +17°C° 0 mm 3 m/S 762 mmHg 39%
    10:00 +18°C° 0 mm 4 m/S 763 mmHg 38%
    11:00 +19°C° 0 mm 5 m/S 763 mmHg 37%
    12:00 +20°C° 0 mm 7 m/S 763 mmHg 36%
    13:00 +18°C° 0 mm 8 m/S 763 mmHg 41%
    14:00 +17°C° 0 mm 10 m/S 763 mmHg 45%
    15:00 +17°C° 0 mm 11 m/S 764 mmHg 50%
    16:00 +14°C° 0 mm 11 m/S 764 mmHg 53%
    17:00 +12°C° 0 mm 11 m/S 765 mmHg 56%
    18:00 +9°C° 0 mm 11 m/S 766 mmHg 60%
    19:00 +8°C° 0 mm 11 m/S 766 mmHg 60%
    20:00 +7°C° 0 mm 11 m/S 767 mmHg 60%
    21:00 +7°C° 0 mm 11 m/S 768 mmHg 60%
    22:00 +6°C° 0,2 mm 11 m/S 768 mmHg 62%
    23:00 +6°C° 0,2 mm 10 m/S 768 mmHg 65%

    1 April, Samstag

    Zeit Temperatur Niederschläge Wind Luftdruck Luftfeuchtigkeit
    00:00 +5°C° 0,2 mm 10 m/S 768 mmHg 67%
    01:00 +5°C° 0,5 mm 9 m/S 768 mmHg 70%
    02:00 +3°C° 0,5 mm 9 m/S 769 mmHg 72%
    03:00 +3°C° 0,5 mm 9 m/S 769 mmHg 75%
    04:00 +3°C° 0,1 mm 9 m/S 769 mmHg 75%
    05:00 +3°C° 0,1 mm 9 m/S 769 mmHg 75%
    06:00 +2°C° 0,1 mm 9 m/S 769 mmHg 75%
    07:00 +3°C° 0,6 mm 9 m/S 769 mmHg 75%
    08:00 +4°C° 0,6 mm 8 m/S 769 mmHg 75%
    09:00 +4°C° 0,6 mm 8 m/S 770 mmHg 75%
    10:00 +5°C° 0,3 mm 7 m/S 769 mmHg 72%
    11:00 +5°C° 0,3 mm 7 m/S 768 mmHg 69%
    12:00 +7°C° 0,3 mm 6 m/S 768 mmHg 66%
    13:00 +7°C° 0 mm 6 m/S 767 mmHg 65%
    14:00 +8°C° 0 mm 5 m/S 767 mmHg 64%
    15:00 +8°C° 0 mm 5 m/S 766 mmHg 64%
    16:00 +8°C° 0 mm 5 m/S 766 mmHg 66%
    17:00 +7°C° 0 mm 5 m/S 766 mmHg 69%
    18:00 +6°C° 0 mm 4 m/S 766 mmHg 72%
    19:00 +6°C° 0 mm 4 m/S 766 mmHg 74%
    20:00 +5°C° 0 mm 4 m/S 766 mmHg 76%
    21:00 +5°C° 0 mm 3 m/S 766 mmHg 78%
    22:00 +5°C° 0 mm 3 m/S 765 mmHg 80%
    23:00 +4°C° 0 mm 3 m/S 765 mmHg 81%

    2 April, Sonntag

    Zeit Temperatur Niederschläge Wind Luftdruck Luftfeuchtigkeit
    00:00 +5°C° 0 mm 2 m/S 765 mmHg 82%
    01:00 +5°C° 0,1 mm 2 m/S 764 mmHg 82%
    02:00 +5°C° 0,1 mm 2 m/S 764 mmHg 82%
    03:00 +6°C° 0,1 mm 2 m/S 764 mmHg 82%
    04:00 +5°C° 0,4 mm 3 m/S 764 mmHg 83%
    05:00 +5°C° 0,4 mm 3 m/S 764 mmHg 83%
    06:00 +5°C° 0,4 mm 3 m/S 764 mmHg 84%
    07:00 +5°C° 0,3 mm 3 m/S 765 mmHg 82%
    08:00 +7°C° 0,3 mm 3 m/S 765 mmHg 80%
    09:00 +6°C° 0,3 mm 4 m/S 765 mmHg 78%
    10:00 +7°C° 0,1 mm 4 m/S 765 mmHg 74%
    11:00 +8°C° 0,1 mm 4 m/S 765 mmHg 71%
    12:00 +8°C° 0,1 mm 4 m/S 765 mmHg 68%
    13:00 +10°C° 0 mm 4 m/S 765 mmHg 66%
    14:00 +10°C° 0 mm 4 m/S 765 mmHg 64%
    15:00 +11°C° 0 mm 4 m/S 765 mmHg 62%
    16:00 +9°C° 0 mm 5 m/S 766 mmHg 65%
    17:00 +8°C° 0 mm 5 m/S 766 mmHg 68%
    18:00 +8°C° 0 mm 5 m/S 767 mmHg 72%
    19:00 +7°C° 0 mm 4 m/S 767 mmHg 75%
    20:00 +6°C° 0 mm 4 m/S 767 mmHg 78%
    21:00 +6°C° 0 mm 4 m/S 768 mmHg 81%
    22:00 +5°C° 0 mm 3 m/S 768 mmHg 82%
    23:00 +5°C° 0 mm 3 m/S 767 mmHg 84%

    3 April, Montag

    Zeit Temperatur Niederschläge Wind Luftdruck Luftfeuchtigkeit
    00:00 +6°C° 0 mm 2 m/S 767 mmHg 86%
    01:00 +5°C° 0 mm 2 m/S 767 mmHg 86%
    02:00 +5°C° 0 mm 2 m/S 767 mmHg 86%
    03:00 +5°C° 0 mm 2 m/S 767 mmHg 87%
    04:00 +5°C° 0 mm 2 m/S 768 mmHg 86%
    05:00 +5°C° 0 mm 2 m/S 768 mmHg 86%
    06:00 +5°C° 0 mm 2 m/S 768 mmHg 86%
    07:00 +7°C° 0 mm 2 m/S 768 mmHg 78%
    08:00 +8°C° 0 mm 2 m/S 768 mmHg 70%
    09:00 +10°C° 0 mm 2 m/S 769 mmHg 62%
    10:00 +10°C° 0 mm 3 m/S 768 mmHg 59%
    11:00 +11°C° 0 mm 3 m/S 768 mmHg 55%
    12:00 +12°C° 0 mm 3 m/S 768 mmHg 51%
    13:00 +12°C° 0 mm 3 m/S 768 mmHg 50%
    14:00 +13°C° 0 mm 4 m/S 768 mmHg 48%
    15:00 +13°C° 0 mm 4 m/S 767 mmHg 47%
    16:00 +12°C° 0 mm 4 m/S 768 mmHg 50%
    17:00 +10°C° 0 mm 4 m/S 768 mmHg 53%
    18:00 +8°C° 0 mm 4 m/S 768 mmHg 56%
    19:00 +8°C° 0 mm 3 m/S 768 mmHg 59%
    20:00 +8°C° 0 mm 3 m/S 768 mmHg 62%
    21:00 +7°C° 0 mm 2 m/S 768 mmHg 64%
    22:00 +6°C° 0 mm 2 m/S 768 mmHg 66%
    23:00 +7°C° 0 mm 1 m/S 768 mmHg 67%
    Mehr zeigen